Weather History for Oklahoma City, OK

Change the Weather History Date:

Saturday, February 2, 2013

  Actual Average Record
Temperature  
Mean Temperature 45 °F 41 °F  
Max Temperature 59 °F 52 °F 77 °F (1995)
Min Temperature 30 °F 30 °F -4 °F (1895)
Degree Days  
Heating Degree Days 20 24  
Month to date heating degree days 50 48  
Since 1 July heating degree days 2002 2201  
Moisture  
Dew Point 29 °F    
Average Humidity 57    
Maximum Humidity 78    
Minimum Humidity 36    
Precipitation  
Precipitation 0.00 in 0.05 in 0.88 in (1943)
Month to date precipitation 0.00 0.10  
Year to date precipitation 1.14 1.49  
Snow  
Snow 0.00 in 0.10 in 2.50 in (1913)
Month to date snowfall 0.0 0.2  
Since 1 July snowfall 1.4 5.5  
Snow Depth -    
Sea Level Pressure  
Sea Level Pressure 30.26 in    
Wind  
Wind Speed 8 mph (NW)    
Max Wind Speed 16 mph    
Max Gust Speed 21 mph    
Visibility 10 miles    
Events      
T = Trace of Precipitation, MM = Missing Value Source: NWS Daily Summary

Daily Weather History Graph

Daily Weather History Graph

Search for Another Location

Airport:

Trip Planner

Search our weather history database for the weather conditions in past years. The results will help you decide how hot, cold, wet, or windy it might be!

Date:

Astronomy

Feb. 02, 2013 Rise Set
Actual Time 7:28 AM CST 5:59 PM CST
Civil Twilight 7:02 AM CST 6:26 PM CST
Nautical Twilight 6:31 AM CST 6:56 PM CST
Astronomical Twilight 6:02 AM CST 7:26 PM CST
Moon No Moon Rise 10:56 AM CST (2/2)
Length of Visible Light 11h 24m
Length of Day
10h 30m
Waning Gibbous, 59% of the Moon is Illuminated
Feb 2
Waning Gibbous
Feb 3
Last Quarter
Feb 10
New
Feb 17
First Quarter
Feb 25
Full

Hourly Weather History & Observations

Time (CST) Temp. Windchill Dew Point Humidity Pressure Visibility Wind Dir Wind Speed Gust Speed Precip Events Conditions
12:52 AM 36.0 °F 30.3 °F 26.1 °F 67% 30.18 in 10.0 mi ENE 6.9 mph - N/A   Clear
1:52 AM 34.0 °F 28.8 °F 26.1 °F 73% 30.16 in 10.0 mi NE 5.8 mph - N/A   Clear
2:52 AM 36.0 °F 31.1 °F 27.0 °F 70% 30.17 in 10.0 mi East 5.8 mph - N/A   Clear
3:52 AM 35.1 °F 32.2 °F 26.1 °F 70% 30.16 in 10.0 mi SSE 3.5 mph - N/A   Clear
4:52 AM 32.0 °F 27.5 °F 25.0 °F 75% 30.18 in 10.0 mi SSW 4.6 mph - N/A   Clear
5:52 AM 32.0 °F 23.0 °F 25.0 °F 75% 30.21 in 10.0 mi NNW 11.5 mph - N/A   Clear
6:52 AM 30.0 °F 25.2 °F 24.1 °F 79% 30.23 in 10.0 mi NNW 4.6 mph - N/A   Clear
7:52 AM 30.9 °F 22.8 °F 24.1 °F 76% 30.26 in 10.0 mi NNW 9.2 mph - N/A   Partly Cloudy
8:52 AM 37.9 °F 30.0 °F 28.0 °F 68% 30.27 in 10.0 mi NNW 12.7 mph - N/A   Partly Cloudy
9:52 AM 44.1 °F 38.6 °F 28.9 °F 55% 30.29 in 10.0 mi NNW 10.4 mph - N/A   Partly Cloudy
10:52 AM 48.9 °F - 30.9 °F 50% 30.31 in 10.0 mi North 13.8 mph - N/A   Partly Cloudy
11:52 AM 52.0 °F - 32.0 °F 47% 30.30 in 10.0 mi North 13.8 mph - N/A   Partly Cloudy
12:52 PM 55.0 °F - 33.1 °F 43% 30.29 in 10.0 mi North 12.7 mph - N/A   Partly Cloudy
1:52 PM 57.0 °F - 34.0 °F 42% 30.28 in 10.0 mi NNW 12.7 mph - N/A   Partly Cloudy
2:52 PM 57.9 °F - 33.1 °F 39% 30.27 in 10.0 mi NW 8.1 mph - N/A   Partly Cloudy
3:52 PM 57.9 °F - 30.9 °F 36% 30.27 in 10.0 mi NW 6.9 mph - N/A   Scattered Clouds
4:52 PM 57.0 °F - 30.0 °F 36% 30.27 in 10.0 mi NW 6.9 mph - N/A   Scattered Clouds
5:52 PM 53.1 °F - 30.9 °F 43% 30.28 in 10.0 mi NW 5.8 mph - N/A   Mostly Cloudy
6:52 PM 48.9 °F - 30.0 °F 48% 30.29 in 10.0 mi Calm Calm - N/A   Mostly Cloudy
7:52 PM 42.8 °F 39.3 °F 30.2 °F 61% 30.28 in 10.0 mi SW 5.8 mph - N/A   Scattered Clouds
8:52 PM 43.0 °F 39.5 °F 28.9 °F 58% 30.31 in 10.0 mi WSW 5.8 mph - N/A   Scattered Clouds
9:52 PM 39.9 °F 37.8 °F 28.9 °F 65% 30.31 in 10.0 mi SW 3.5 mph - N/A   Scattered Clouds
10:52 PM 39.9 °F 35.1 °F 28.9 °F 65% 30.31 in 10.0 mi WSW 6.9 mph - N/A   Scattered Clouds
11:52 PM 41.0 °F 38.0 °F 28.9 °F 62% 30.31 in 10.0 mi WSW 4.6 mph - N/A   Scattered Clouds